This is the latest recevied weather packets stored in our database for station/object XW7RMR. If no packets are shown the sender has not sent any weather packets the latest 10 day(s).
| Time | Temp. | Humidity | Pressure | Rain* | Wind** | Luminosity | Snow |
|---|---|---|---|---|---|---|---|
| 1777163438 | 20.56° C | 23% | 1006.4 hPa | 0 mm | - | 324 W/m² | - |
| 1777163134 | 20.56° C | 23% | 1006.3 hPa | 0 mm | - | 340 W/m² | - |
| 1777162830 | 20.56° C | 22% | 1006.5 hPa | 0 mm | - | 359 W/m² | - |
| 1777162526 | 20.56° C | 23% | 1006.4 hPa | 0 mm | - | 378 W/m² | - |
| 1777162226 | 20.56° C | 22% | 1006.4 hPa | 0 mm | - | 394 W/m² | - |
| 1777161920 | 20° C | 22% | 1006.4 hPa | 0 mm | - | 410 W/m² | - |
| 1777161616 | 20.56° C | 21% | 1006.6 hPa | 0 mm | - | 427 W/m² | - |
| 1777161313 | 20.56° C | 21% | 1006.5 hPa | 0 mm | - | 439 W/m² | - |
| 1777161009 | 20.56° C | 22% | 1006.7 hPa | 0 mm | - | 455 W/m² | - |
| 1777160705 | 20.56° C | 21% | 1006.7 hPa | 0 mm | - | 470 W/m² | - |
| 1777160400 | 20.56° C | 22% | 1006.8 hPa | 0 mm | - | 485 W/m² | - |
| 1777160097 | 21.67° C | 21% | 1006.7 hPa | 0 mm | - | 502 W/m² | - |
| 1777159792 | 20.56° C | 21% | 1006.9 hPa | 0 mm | - | 513 W/m² | - |
| 1777159489 | 21.11° C | 20% | 1007 hPa | 0 mm | - | 527 W/m² | - |
| 1777159186 | 20.56° C | 22% | 1006.9 hPa | 0 mm | - | 542 W/m² | - |
| 1777158882 | 20.56° C | 22% | 1007 hPa | 0 mm | - | 557 W/m² | - |
| 1777158580 | 20.56° C | 21% | 1007.3 hPa | 0 mm | - | 571 W/m² | - |
| 1777158276 | 20.56° C | 21% | 1007.1 hPa | 0 mm | - | 585 W/m² | - |
| 1777157973 | 20° C | 21% | 1007.2 hPa | 0 mm | - | 596 W/m² | - |
| 1777157669 | 20.56° C | 21% | 1007.3 hPa | 0 mm | - | 608 W/m² | - |
| 1777157365 | 20° C | 21% | 1007.6 hPa | 0 mm | - | 620 W/m² | - |
| 1777157065 | 20° C | 19% | 1007.4 hPa | 0 mm | - | 630 W/m² | - |
| 1777156760 | 20° C | 20% | 1007.5 hPa | 0 mm | - | 640 W/m² | - |
| 1777156456 | 20° C | 20% | 1007.6 hPa | 0 mm | - | 653 W/m² | - |
| 1777156153 | 20° C | 20% | 1007.8 hPa | 0 mm | - | 664 W/m² | - |
* Rain latest hour (hover to see other rain measurements)
** Current wind speed in m/s (hover to see current wind gust speed)